Time,TemperatureF,DewpointF,PressureIn,WindDirection,WindDirectionDegrees,WindSpeedMPH,WindSpeedGustMPH,Humidity,HourlyPrecipIn,Conditions,Clouds,dailyrainin,SoftwareType,DateUTC
2013-08-30 00:01:00,61.2,59.7,28.36,SW,225,0.0,1.0,95,0.00,,,25.02,meteohub,2013-08-30 04:01:00,
2013-08-30 00:02:00,61.2,59.7,28.36,SW,225,0.0,1.0,95,0.00,,,25.02,meteohub,2013-08-30 04:02:00,
2013-08-30 00:03:00,61.2,59.7,28.36,East,90,0.0,1.0,95,0.00,,,25.02,meteohub,2013-08-30 04:03:00,
2013-08-30 00:06:00,61.2,59.7,28.36,East,90,0.0,0.0,95,0.00,,,0.00,meteohub,2013-08-30 04:06:00,
2013-08-30 00:08:00,61.2,59.7,28.36,SE,135,0.0,0.0,95,0.00,,,0.00,meteohub,2013-08-30 04:08:00,
2013-08-30 00:13:00,61.0,59.5,28.36,East,90,0.0,1.0,95,0.00,,,0.00,meteohub,2013-08-30 04:13:00,
2013-08-30 00:18:00,61.0,59.5,28.35,South,180,0.0,1.0,95,0.00,,,0.00,meteohub,2013-08-30 04:18:00,
2013-08-30 00:23:00,60.8,59.4,28.35,South,180,0.0,1.0,95,0.00,,,0.00,meteohub,2013-08-30 04:23:00,
2013-08-30 00:28:00,60.6,59.5,28.35,NW,315,0.0,1.0,96,0.00,,,0.00,meteohub,2013-08-30 04:28:00,
2013-08-30 00:33:00,60.6,59.5,28.35,East,90,0.0,0.0,96,0.00,,,0.00,meteohub,2013-08-30 04:33:00,
2013-08-30 00:39:00,60.4,59.4,28.35,West,270,0.0,0.0,96,0.00,,,0.00,meteohub,2013-08-30 04:39:00,
2013-08-30 00:44:00,60.4,59.4,28.35,East,90,0.0,0.0,96,0.00,,,0.00,meteohub,2013-08-30 04:44:00,
2013-08-30 00:49:00,60.3,59.2,28.35,NW,315,0.0,0.0,96,0.00,,,0.00,meteohub,2013-08-30 04:49:00,
2013-08-30 00:54:00,60.1,59.0,28.35,SW,225,0.0,0.0,96,0.00,,,0.00,meteohub,2013-08-30 04:54:00,
2013-08-30 00:59:00,60.1,59.0,28.35,SW,225,0.0,0.0,96,0.00,,,0.00,meteohub,2013-08-30 04:59:00,
2013-08-30 01:04:00,59.9,58.8,28.35,East,90,0.0,0.0,96,0.00,,,0.00,meteohub,2013-08-30 05:04:00,
2013-08-30 01:09:00,59.9,58.8,28.34,East,90,0.0,0.0,96,0.00,,,0.00,meteohub,2013-08-30 05:09:00,
2013-08-30 01:14:00,59.7,58.6,28.35,SW,225,0.0,0.0,96,0.00,,,0.00,meteohub,2013-08-30 05:14:00,
2013-08-30 01:19:00,59.7,58.6,28.35,SW,225,0.0,0.0,96,0.00,,,0.00,meteohub,2013-08-30 05:19:00,
2013-08-30 01:24:00,59.5,58.5,28.35,SW,225,0.0,0.0,96,0.00,,,0.00,meteohub,2013-08-30 05:24:00,
2013-08-30 01:29:00,59.5,58.5,28.34,SE,135,0.0,0.0,96,0.00,,,0.00,meteohub,2013-08-30 05:29:00,
2013-08-30 01:34:00,59.5,58.5,28.34,NE,45,0.0,0.0,96,0.00,,,0.00,meteohub,2013-08-30 05:34:00,
2013-08-30 01:39:00,59.4,58.3,28.34,NW,315,0.0,0.0,96,0.00,,,0.00,meteohub,2013-08-30 05:39:00,
2013-08-30 01:44:00,59.2,58.1,28.34,SW,225,0.0,0.0,96,0.00,,,0.00,meteohub,2013-08-30 05:44:00,
2013-08-30 01:50:00,59.0,57.9,28.34,West,270,0.0,0.0,96,0.00,,,0.00,meteohub,2013-08-30 05:50:00,
2013-08-30 01:55:00,59.0,57.9,28.33,West,270,0.0,0.0,96,0.00,,,0.00,meteohub,2013-08-30 05:55:00,
2013-08-30 02:00:00,58.8,57.9,28.34,West,270,0.0,0.0,97,0.00,,,0.00,meteohub,2013-08-30 06:00:00,
2013-08-30 02:05:00,58.8,57.9,28.34,South,180,0.0,0.0,97,0.00,,,0.00,meteohub,2013-08-30 06:05:00,
2013-08-30 02:10:00,58.6,58.1,28.34,South,180,0.0,0.0,98,0.00,,,0.00,meteohub,2013-08-30 06:10:00,
2013-08-30 02:15:00,58.6,58.1,28.33,South,180,0.0,0.0,98,0.00,,,0.00,meteohub,2013-08-30 06:15:00,
2013-08-30 02:20:00,58.5,57.9,28.33,South,180,0.0,0.0,98,0.00,,,0.00,meteohub,2013-08-30 06:20:00,
2013-08-30 02:25:00,58.5,57.9,28.33,South,180,0.0,0.0,98,0.00,,,0.00,meteohub,2013-08-30 06:25:00,
2013-08-30 02:30:00,58.3,57.7,28.33,South,180,0.0,0.0,98,0.00,,,0.00,meteohub,2013-08-30 06:30:00,
2013-08-30 02:35:00,58.3,57.7,28.34,North,0,0.0,0.0,98,0.00,,,0.00,meteohub,2013-08-30 06:35:00,
2013-08-30 02:40:00,58.3,57.7,28.33,North,0,0.0,0.0,98,0.00,,,0.00,meteohub,2013-08-30 06:40:00,
2013-08-30 02:45:00,58.1,57.6,28.33,North,0,0.0,0.0,98,0.00,,,0.00,meteohub,2013-08-30 06:45:00,
2013-08-30 02:50:00,58.1,57.6,28.33,North,0,0.0,0.0,98,0.00,,,0.00,meteohub,2013-08-30 06:50:00,
2013-08-30 02:55:00,58.1,57.6,28.32,South,180,0.0,0.0,98,0.00,,,0.00,meteohub,2013-08-30 06:55:00,
2013-08-30 03:01:00,58.1,57.6,28.32,SE,135,0.0,0.0,98,0.00,,,0.00,meteohub,2013-08-30 07:01:00,
2013-08-30 03:06:00,57.9,57.4,28.32,SE,135,0.0,0.0,98,0.00,,,0.00,meteohub,2013-08-30 07:06:00,
2013-08-30 03:11:00,57.9,57.4,28.32,SE,135,0.0,0.0,98,0.00,,,0.00,meteohub,2013-08-30 07:11:00,
2013-08-30 03:16:00,57.7,57.2,28.32,SE,135,0.0,0.0,98,0.00,,,0.00,meteohub,2013-08-30 07:16:00,
2013-08-30 03:21:00,57.6,57.0,28.32,NE,45,0.0,0.0,98,0.00,,,0.00,meteohub,2013-08-30 07:21:00,
2013-08-30 03:26:00,57.6,57.0,28.32,SW,225,0.0,0.0,98,0.00,,,0.00,meteohub,2013-08-30 07:26:00,
2013-08-30 03:31:00,57.4,56.8,28.32,SW,225,0.0,0.0,98,0.00,,,0.00,meteohub,2013-08-30 07:31:00,
2013-08-30 03:36:00,57.2,56.7,28.32,SW,225,0.0,0.0,98,0.00,,,0.00,meteohub,2013-08-30 07:36:00,
2013-08-30 03:41:00,57.2,56.7,28.32,NW,315,0.0,0.0,98,0.00,,,0.00,meteohub,2013-08-30 07:41:00,
2013-08-30 03:46:00,57.0,56.7,28.32,NW,315,0.0,0.0,99,0.00,,,0.00,meteohub,2013-08-30 07:46:00,
2013-08-30 03:51:00,57.0,56.7,28.32,NW,315,0.0,0.0,99,0.00,,,0.00,meteohub,2013-08-30 07:51:00,
2013-08-30 03:56:00,56.8,56.5,28.32,NW,315,0.0,0.0,99,0.00,,,0.00,meteohub,2013-08-30 07:56:00,
2013-08-30 04:01:00,57.0,56.7,28.32,South,180,0.0,0.0,99,0.00,,,0.00,meteohub,2013-08-30 08:01:00,
2013-08-30 04:06:00,57.0,56.7,28.32,South,180,0.0,0.0,99,0.00,,,0.00,meteohub,2013-08-30 08:06:00,
2013-08-30 04:11:00,57.2,56.7,28.32,South,180,0.0,0.0,98,0.00,,,0.00,meteohub,2013-08-30 08:11:00,
2013-08-30 04:16:00,57.2,56.7,28.32,South,180,0.0,0.0,98,0.00,,,0.00,meteohub,2013-08-30 08:16:00,
2013-08-30 04:22:00,57.4,56.8,28.32,South,180,0.0,0.0,98,0.00,,,0.00,meteohub,2013-08-30 08:22:00,
2013-08-30 04:27:00,57.4,57.0,28.32,South,180,0.0,0.0,99,0.00,,,0.00,meteohub,2013-08-30 08:27:00,
2013-08-30 04:32:00,57.6,57.2,28.32,East,90,0.0,0.0,99,0.00,,,0.00,meteohub,2013-08-30 08:32:00,
2013-08-30 04:37:00,57.6,57.2,28.32,East,90,0.0,0.0,99,0.00,,,0.00,meteohub,2013-08-30 08:37:00,
2013-08-30 04:42:00,57.6,57.2,28.32,East,90,0.0,0.0,99,0.00,,,0.00,meteohub,2013-08-30 08:42:00,
2013-08-30 04:47:00,57.4,57.0,28.32,South,180,0.0,0.0,99,0.00,,,0.00,meteohub,2013-08-30 08:47:00,
2013-08-30 04:52:00,57.6,57.2,28.32,SE,135,0.0,0.0,99,0.00,,,0.00,meteohub,2013-08-30 08:52:00,
2013-08-30 04:57:00,57.4,57.0,28.32,SE,135,0.0,0.0,99,0.00,,,0.00,meteohub,2013-08-30 08:57:00,
2013-08-30 05:02:00,57.6,57.2,28.32,SE,135,0.0,0.0,99,0.00,,,0.00,meteohub,2013-08-30 09:02:00,
2013-08-30 05:07:00,57.6,57.2,28.32,SE,135,0.0,0.0,99,0.00,,,0.00,meteohub,2013-08-30 09:07:00,
2013-08-30 05:12:00,57.6,57.2,28.32,South,180,0.0,0.0,99,0.00,,,0.00,meteohub,2013-08-30 09:12:00,
2013-08-30 05:17:00,57.4,57.0,28.32,South,180,0.0,0.0,99,0.00,,,0.00,meteohub,2013-08-30 09:17:00,
2013-08-30 05:22:00,57.2,56.8,28.32,SE,135,0.0,0.0,99,0.00,,,0.00,meteohub,2013-08-30 09:22:00,
2013-08-30 05:27:00,57.2,56.8,28.32,South,180,0.0,1.0,99,0.00,,,0.00,meteohub,2013-08-30 09:27:00,
2013-08-30 05:32:00,57.2,56.8,28.33,East,90,1.0,1.0,99,0.00,,,0.00,meteohub,2013-08-30 09:32:00,
2013-08-30 05:37:00,57.2,56.8,28.33,SW,225,0.0,1.0,99,0.00,,,0.00,meteohub,2013-08-30 09:37:00,
2013-08-30 05:42:00,57.2,56.8,28.33,South,180,0.0,1.0,99,0.00,,,0.00,meteohub,2013-08-30 09:42:00,
2013-08-30 05:47:00,57.2,56.8,28.33,SE,135,0.0,1.0,99,0.00,,,0.00,meteohub,2013-08-30 09:47:00,
2013-08-30 05:52:00,57.2,56.8,28.33,East,90,0.0,0.0,99,0.00,,,0.00,meteohub,2013-08-30 09:52:00,
2013-08-30 05:57:00,57.2,56.8,28.32,SE,135,1.0,1.0,99,0.00,,,0.00,meteohub,2013-08-30 09:57:00,
2013-08-30 06:02:00,57.2,56.8,28.33,South,180,0.0,1.0,99,0.00,,,0.00,meteohub,2013-08-30 10:02:00,
2013-08-30 06:07:00,57.2,56.8,28.33,South,180,1.0,1.0,99,0.00,,,0.00,meteohub,2013-08-30 10:07:00,
2013-08-30 06:12:00,57.0,56.7,28.33,SE,135,0.0,2.0,99,0.00,,,0.00,meteohub,2013-08-30 10:12:00,
2013-08-30 06:17:00,57.0,56.7,28.33,SE,135,0.0,2.0,99,0.00,,,0.00,meteohub,2013-08-30 10:17:00,
2013-08-30 06:22:00,57.0,56.7,28.34,East,90,2.0,2.0,99,0.00,,,0.00,meteohub,2013-08-30 10:22:00,
2013-08-30 06:27:00,57.0,56.7,28.34,South,180,1.0,2.0,99,0.00,,,0.00,meteohub,2013-08-30 10:27:00,
2013-08-30 06:32:00,57.0,56.7,28.34,SE,135,1.0,2.0,99,0.00,,,0.00,meteohub,2013-08-30 10:32:00,
2013-08-30 06:37:00,57.0,56.7,28.34,SE,135,2.0,2.0,99,0.00,,,0.00,meteohub,2013-08-30 10:37:00,
2013-08-30 06:42:00,56.8,56.5,28.34,NE,45,2.0,2.0,99,0.00,,,0.00,meteohub,2013-08-30 10:42:00,
2013-08-30 06:47:00,56.8,56.5,28.33,NE,45,1.0,2.0,99,0.00,,,0.00,meteohub,2013-08-30 10:47:00,
2013-08-30 06:53:00,56.8,56.5,28.34,East,90,0.0,2.0,99,0.00,,,0.00,meteohub,2013-08-30 10:53:00,
2013-08-30 06:58:00,56.7,56.3,28.34,South,180,1.0,2.0,99,0.00,,,0.00,meteohub,2013-08-30 10:58:00,
2013-08-30 07:03:00,56.7,56.3,28.33,South,180,0.0,1.0,99,0.00,,,0.00,meteohub,2013-08-30 11:03:00,
2013-08-30 07:08:00,56.8,56.5,28.33,SE,135,0.0,1.0,99,0.00,,,0.00,meteohub,2013-08-30 11:08:00,
2013-08-30 07:13:00,56.8,56.5,28.33,SE,135,1.0,2.0,99,0.00,,,0.00,meteohub,2013-08-30 11:13:00,
2013-08-30 07:18:00,57.0,56.7,28.33,South,180,1.0,2.0,99,0.00,,,0.00,meteohub,2013-08-30 11:18:00,
2013-08-30 07:23:00,57.0,56.7,28.33,South,180,1.0,2.0,99,0.00,,,0.00,meteohub,2013-08-30 11:23:00,
2013-08-30 07:28:00,57.0,56.7,28.33,South,180,2.0,2.0,99,0.00,,,0.00,meteohub,2013-08-30 11:28:00,
2013-08-30 07:33:00,57.0,56.7,28.33,East,90,2.0,2.0,99,0.00,,,0.00,meteohub,2013-08-30 11:33:00,
2013-08-30 07:38:00,57.2,56.8,28.33,NE,45,2.0,2.0,99,0.00,,,0.00,meteohub,2013-08-30 11:38:00,
2013-08-30 07:43:00,57.2,56.8,28.33,East,90,1.0,2.0,99,0.00,,,0.00,meteohub,2013-08-30 11:43:00,
2013-08-30 07:48:00,57.4,57.0,28.34,South,180,1.0,2.0,99,0.00,,,0.00,meteohub,2013-08-30 11:48:00,
2013-08-30 07:53:00,57.4,57.0,28.34,South,180,1.0,2.0,99,0.00,,,0.00,meteohub,2013-08-30 11:53:00,
2013-08-30 08:26:00,59.0,58.6,28.33,NE,45,2.0,-999.0,99,0.00,,,0.00,meteohub,2013-08-30 12:26:00,
2013-08-30 08:31:00,59.2,58.8,28.33,NE,45,0.0,2.0,99,0.00,,,0.00,meteohub,2013-08-30 12:31:00,
2013-08-30 08:36:00,59.4,59.0,28.33,SE,135,0.0,2.0,99,0.00,,,0.00,meteohub,2013-08-30 12:36:00,
2013-08-30 08:41:00,59.4,59.0,28.33,SE,135,0.0,2.0,99,0.00,,,0.00,meteohub,2013-08-30 12:41:00,
2013-08-30 08:46:00,59.4,59.0,28.33,SE,135,0.0,0.0,99,0.00,,,0.00,meteohub,2013-08-30 12:46:00,
2013-08-30 08:51:00,60.3,59.9,28.33,North,0,0.0,0.0,99,0.00,,,0.00,meteohub,2013-08-30 12:51:00,
2013-08-30 08:56:00,61.0,60.4,28.32,East,90,2.0,2.0,98,0.00,,,0.00,meteohub,2013-08-30 12:56:00,
2013-08-30 09:01:00,61.3,60.8,28.32,SE,135,1.0,2.0,98,0.00,,,0.00,meteohub,2013-08-30 13:01:00,
2013-08-30 09:07:00,62.2,61.7,28.32,SE,135,1.0,2.0,98,0.00,,,0.00,meteohub,2013-08-30 13:07:00,
2013-08-30 09:12:00,63.5,62.6,28.32,East,90,3.0,3.0,97,0.00,,,0.00,meteohub,2013-08-30 13:12:00,
2013-08-30 09:17:00,63.7,62.8,28.32,NE,45,2.0,3.0,97,0.00,,,0.00,meteohub,2013-08-30 13:17:00,
2013-08-30 09:22:00,64.6,64.2,28.32,East,90,3.0,3.0,99,0.00,,,0.00,meteohub,2013-08-30 13:22:00,
2013-08-30 09:27:00,65.7,65.3,28.32,East,90,2.0,3.0,99,0.00,,,0.00,meteohub,2013-08-30 13:27:00,
2013-08-30 09:32:00,66.2,65.8,28.32,East,90,1.0,3.0,99,0.00,,,0.00,meteohub,2013-08-30 13:32:00,
2013-08-30 09:37:00,67.5,66.9,28.32,East,90,1.0,3.0,98,0.00,,,0.00,meteohub,2013-08-30 13:37:00,
2013-08-30 09:42:00,68.4,67.1,28.32,East,90,2.0,3.0,96,0.00,,,0.00,meteohub,2013-08-30 13:42:00,
2013-08-30 09:47:00,69.3,67.1,28.32,NE,45,2.0,3.0,93,0.00,,,0.00,meteohub,2013-08-30 13:47:00,
2013-08-30 09:52:00,70.2,67.5,28.32,North,0,4.0,4.0,91,0.00,,,0.00,meteohub,2013-08-30 13:52:00,
2013-08-30 09:57:00,70.9,66.7,28.32,North,0,5.0,5.0,87,0.00,,,0.00,meteohub,2013-08-30 13:57:00,
2013-08-30 10:02:00,71.2,64.8,28.32,NW,315,4.0,5.0,80,0.00,,,0.00,meteohub,2013-08-30 14:02:00,
2013-08-30 10:07:00,71.6,64.4,28.32,NW,315,3.0,5.0,78,0.00,,,0.00,meteohub,2013-08-30 14:07:00,
2013-08-30 10:12:00,71.8,63.5,28.32,North,0,4.0,6.0,75,0.00,,,0.00,meteohub,2013-08-30 14:12:00,
2013-08-30 10:17:00,71.6,62.1,28.32,North,0,3.0,8.0,72,0.00,,,0.00,meteohub,2013-08-30 14:17:00,
2013-08-30 10:22:00,71.6,62.4,28.32,West,270,2.0,8.0,73,0.00,,,0.00,meteohub,2013-08-30 14:22:00,
2013-08-30 10:27:00,71.6,63.3,28.31,NW,315,2.0,8.0,75,0.00,,,0.00,meteohub,2013-08-30 14:27:00,
2013-08-30 10:32:00,72.1,63.9,28.32,NE,45,2.0,6.0,75,0.00,,,0.00,meteohub,2013-08-30 14:32:00,
2013-08-30 10:37:00,73.2,63.7,28.31,NE,45,4.0,4.0,72,0.00,,,0.00,meteohub,2013-08-30 14:37:00,
2013-08-30 10:42:00,73.8,63.0,28.31,North,0,6.0,6.0,69,0.00,,,0.00,meteohub,2013-08-30 14:42:00,
2013-08-30 10:47:00,73.2,60.3,28.31,North,0,4.0,8.0,64,0.00,,,0.00,meteohub,2013-08-30 14:47:00,
2013-08-30 10:52:00,73.4,61.7,28.31,NW,315,4.0,8.0,67,0.00,,,0.00,meteohub,2013-08-30 14:52:00,
2013-08-30 10:57:00,73.8,60.8,28.32,North,0,4.0,8.0,64,0.00,,,0.00,meteohub,2013-08-30 14:57:00,
2013-08-30 11:02:00,74.3,61.3,28.31,NE,45,4.0,7.0,64,0.00,,,0.00,meteohub,2013-08-30 15:02:00,
2013-08-30 11:07:00,74.7,61.7,28.31,West,270,2.0,7.0,64,0.00,,,0.00,meteohub,2013-08-30 15:07:00,
2013-08-30 11:12:00,75.2,59.9,28.31,NNW,338,3.0,7.0,59,0.00,,,0.00,meteohub,2013-08-30 15:12:00,
2013-08-30 11:17:00,75.7,60.4,28.31,East,90,4.0,7.0,59,0.00,,,0.00,meteohub,2013-08-30 15:17:00,
2013-08-30 11:22:00,76.1,61.2,28.30,North,0,4.0,7.0,60,0.00,,,0.00,meteohub,2013-08-30 15:22:00,
2013-08-30 11:27:00,76.5,59.5,28.31,NE,45,4.0,5.0,56,0.00,,,0.00,meteohub,2013-08-30 15:27:00,
2013-08-30 11:32:00,76.8,59.9,28.30,WNW,293,2.0,5.0,56,0.00,,,0.00,meteohub,2013-08-30 15:32:00,
2013-08-30 11:37:00,77.4,59.4,28.30,NE,45,2.0,5.0,54,0.00,,,0.00,meteohub,2013-08-30 15:37:00,
2013-08-30 11:42:00,77.9,59.4,28.30,NW,315,4.0,5.0,53,0.00,,,0.00,meteohub,2013-08-30 15:42:00,
2013-08-30 11:47:00,78.1,58.5,28.30,NE,45,4.0,5.0,51,0.00,,,0.00,meteohub,2013-08-30 15:47:00,
2013-08-30 11:52:00,78.3,58.1,28.29,NE,45,3.0,5.0,50,0.00,,,0.00,meteohub,2013-08-30 15:52:00,
2013-08-30 11:57:00,78.4,59.4,28.29,NE,45,4.0,7.0,52,0.00,,,0.00,meteohub,2013-08-30 15:57:00,
2013-08-30 12:02:00,78.8,57.4,28.29,North,0,6.0,7.0,48,0.00,,,0.00,meteohub,2013-08-30 16:02:00,
2013-08-30 12:07:00,78.6,56.7,28.29,North,0,4.0,7.0,47,0.00,,,0.00,meteohub,2013-08-30 16:07:00,
2013-08-30 12:12:00,78.8,58.1,28.29,North,0,4.0,6.0,49,0.00,,,0.00,meteohub,2013-08-30 16:12:00,
2013-08-30 12:17:00,78.8,58.1,28.28,ENE,68,3.0,7.0,49,0.00,,,0.00,meteohub,2013-08-30 16:17:00,
2013-08-30 12:22:00,79.2,59.0,28.27,North,0,7.0,7.0,50,0.00,,,0.00,meteohub,2013-08-30 16:22:00,
2013-08-30 12:27:00,79.9,59.0,28.28,SW,225,4.0,7.0,49,0.00,,,0.00,meteohub,2013-08-30 16:27:00,
2013-08-30 12:32:00,80.1,58.6,28.28,North,0,4.0,7.0,48,0.00,,,0.00,meteohub,2013-08-30 16:32:00,
2013-08-30 12:37:00,80.1,58.1,28.28,North,0,5.0,7.0,47,0.00,,,0.00,meteohub,2013-08-30 16:37:00,
2013-08-30 12:42:00,80.1,58.6,28.27,NNW,338,3.0,6.0,48,0.00,,,0.00,meteohub,2013-08-30 16:42:00,
2013-08-30 12:47:00,80.6,58.5,28.28,North,0,4.0,6.0,47,0.00,,,0.00,meteohub,2013-08-30 16:47:00,
2013-08-30 12:52:00,80.8,56.1,28.27,NE,45,4.0,6.0,43,0.00,,,0.00,meteohub,2013-08-30 16:52:00,
2013-08-30 12:57:00,80.8,58.6,28.27,NE,45,4.0,5.0,47,0.00,,,0.00,meteohub,2013-08-30 16:57:00,
2013-08-30 13:02:00,80.8,56.8,28.27,NW,315,4.0,6.0,44,0.00,,,0.00,meteohub,2013-08-30 17:02:00,
2013-08-30 13:07:00,81.3,58.6,28.27,NE,45,4.0,6.0,46,0.00,,,0.00,meteohub,2013-08-30 17:07:00,
2013-08-30 13:12:00,81.7,58.3,28.27,NE,45,2.0,6.0,45,0.00,,,0.00,meteohub,2013-08-30 17:12:00,
2013-08-30 13:17:00,81.9,59.0,28.27,NW,315,2.0,4.0,46,0.00,,,0.00,meteohub,2013-08-30 17:17:00,
2013-08-30 13:22:00,82.2,59.9,28.26,NW,315,3.0,4.0,47,0.00,,,0.00,meteohub,2013-08-30 17:22:00,
2013-08-30 13:27:00,82.2,57.6,28.26,SE,135,2.0,4.0,43,0.00,,,0.00,meteohub,2013-08-30 17:27:00,
2013-08-30 13:32:00,82.4,58.3,28.26,East,90,2.0,5.0,44,0.00,,,0.00,meteohub,2013-08-30 17:32:00,
2013-08-30 13:37:00,82.8,59.2,28.26,NE,45,2.0,5.0,45,0.00,,,0.00,meteohub,2013-08-30 17:37:00,
2013-08-30 13:42:00,82.8,59.2,28.26,NE,45,5.0,5.0,45,0.00,,,0.00,meteohub,2013-08-30 17:42:00,
2013-08-30 13:47:00,82.4,58.3,28.26,SW,225,2.0,6.0,44,0.00,,,0.00,meteohub,2013-08-30 17:47:00,
2013-08-30 13:52:00,82.6,59.7,28.26,NW,315,6.0,6.0,46,0.00,,,0.00,meteohub,2013-08-30 17:52:00,
2013-08-30 13:57:00,82.6,58.5,28.26,North,0,7.0,7.0,44,0.00,,,0.00,meteohub,2013-08-30 17:57:00,
2013-08-30 14:02:00,81.9,56.5,28.25,North,0,4.0,8.0,42,0.00,,,0.00,meteohub,2013-08-30 18:02:00,
2013-08-30 14:07:00,81.3,56.1,28.25,NW,315,3.0,8.0,42,0.00,,,0.00,meteohub,2013-08-30 18:07:00,
2013-08-30 14:12:00,81.9,57.2,28.25,North,0,4.0,8.0,43,0.00,,,0.00,meteohub,2013-08-30 18:12:00,
2013-08-30 14:17:00,82.0,56.7,28.25,North,0,4.0,8.0,42,0.00,,,0.00,meteohub,2013-08-30 18:17:00,
2013-08-30 14:22:00,82.2,57.6,28.25,SSW,203,2.0,7.0,43,0.00,,,0.00,meteohub,2013-08-30 18:22:00,
2013-08-30 14:27:00,82.8,59.2,28.24,ENE,68,5.0,5.0,45,0.00,,,0.00,meteohub,2013-08-30 18:27:00,
2013-08-30 14:32:00,82.9,60.1,28.24,North,0,3.0,5.0,46,0.00,,,0.00,meteohub,2013-08-30 18:32:00,
2013-08-30 14:37:00,83.1,59.5,28.24,NE,45,4.0,6.0,45,0.00,,,0.00,meteohub,2013-08-30 18:37:00,
2013-08-30 14:42:00,82.9,59.4,28.24,NE,45,2.0,6.0,45,0.00,,,0.00,meteohub,2013-08-30 18:42:00,
2013-08-30 14:47:00,83.3,59.2,28.24,NNW,338,4.0,6.0,44,0.00,,,0.00,meteohub,2013-08-30 18:47:00,
2013-08-30 14:52:00,83.3,59.2,28.23,East,90,3.0,6.0,44,0.00,,,0.00,meteohub,2013-08-30 18:52:00,
2013-08-30 14:57:00,83.3,59.7,28.23,NE,45,2.0,4.0,45,0.00,,,0.00,meteohub,2013-08-30 18:57:00,
2013-08-30 15:02:00,83.7,60.6,28.24,NW,315,2.0,4.0,46,0.00,,,0.00,meteohub,2013-08-30 19:02:00,
2013-08-30 15:07:00,84.0,60.4,28.23,North,0,4.0,5.0,45,0.00,,,0.00,meteohub,2013-08-30 19:07:00,
2013-08-30 15:12:00,83.1,59.5,28.23,North,0,3.0,5.0,45,0.00,,,0.00,meteohub,2013-08-30 19:12:00,
2013-08-30 15:17:00,83.3,60.4,28.23,North,0,3.0,5.0,46,0.00,,,0.00,meteohub,2013-08-30 19:17:00,
2013-08-30 15:22:00,82.9,60.6,28.23,North,0,3.0,5.0,47,0.00,,,0.00,meteohub,2013-08-30 19:22:00,
2013-08-30 15:27:00,82.9,60.1,28.23,East,90,2.0,5.0,46,0.00,,,0.00,meteohub,2013-08-30 19:27:00,
2013-08-30 15:32:00,82.9,60.1,28.23,NW,315,2.0,5.0,46,0.00,,,0.00,meteohub,2013-08-30 19:32:00,
2013-08-30 15:37:00,82.9,60.1,28.23,North,0,3.0,3.0,46,0.00,,,0.00,meteohub,2013-08-30 19:37:00,
2013-08-30 15:42:00,82.9,61.2,28.23,NW,315,2.0,4.0,48,0.00,,,0.00,meteohub,2013-08-30 19:42:00,
2013-08-30 15:47:00,83.1,60.8,28.23,NW,315,3.0,4.0,47,0.00,,,0.00,meteohub,2013-08-30 19:47:00,
2013-08-30 15:52:00,82.4,61.9,28.23,North,0,1.0,4.0,50,0.00,,,0.00,meteohub,2013-08-30 19:52:00,
2013-08-30 15:57:00,81.9,61.3,28.22,North,0,2.0,4.0,50,0.00,,,0.00,meteohub,2013-08-30 19:57:00,
2013-08-30 16:02:00,81.7,61.2,28.22,North,0,3.0,4.0,50,0.00,,,0.00,meteohub,2013-08-30 20:02:00,
2013-08-30 16:07:00,81.9,63.5,28.23,NW,315,2.0,3.0,54,0.00,,,0.00,meteohub,2013-08-30 20:07:00,
2013-08-30 16:12:00,81.9,62.4,28.22,North,0,1.0,3.0,52,0.00,,,0.00,meteohub,2013-08-30 20:12:00,
2013-08-30 16:17:00,82.2,61.7,28.22,NE,45,2.0,3.0,50,0.00,,,0.00,meteohub,2013-08-30 20:17:00,
2013-08-30 16:22:00,82.2,61.7,28.22,NW,315,3.0,3.0,50,0.00,,,0.00,meteohub,2013-08-30 20:22:00,
2013-08-30 16:27:00,81.9,61.3,28.22,North,0,5.0,8.0,50,0.00,,,0.00,meteohub,2013-08-30 20:27:00,
2013-08-30 16:32:00,81.3,61.0,28.22,NW,315,4.0,8.0,50,0.00,,,0.00,meteohub,2013-08-30 20:32:00,
2013-08-30 16:37:00,81.3,62.1,28.22,North,0,2.0,8.0,52,0.00,,,0.00,meteohub,2013-08-30 20:37:00,
2013-08-30 16:42:00,81.0,61.2,28.22,North,0,5.0,5.0,51,0.00,,,0.00,meteohub,2013-08-30 20:42:00,
2013-08-30 16:47:00,80.6,62.4,28.22,West,270,2.0,5.0,54,0.00,,,0.00,meteohub,2013-08-30 20:47:00,
2013-08-30 16:52:00,80.6,63.5,28.22,SE,135,2.0,5.0,56,0.00,,,0.00,meteohub,2013-08-30 20:52:00,
2013-08-30 16:57:00,80.4,63.3,28.22,West,270,1.0,5.0,56,0.00,,,0.00,meteohub,2013-08-30 20:57:00,
2013-08-30 17:02:00,80.2,64.6,28.22,North,0,1.0,2.0,59,0.00,,,0.00,meteohub,2013-08-30 21:02:00,
2013-08-30 17:07:00,79.9,64.2,28.22,NW,315,1.0,2.0,59,0.00,,,0.00,meteohub,2013-08-30 21:07:00,
2013-08-30 17:12:00,79.7,65.1,28.22,SW,225,1.0,2.0,61,0.00,,,0.00,meteohub,2013-08-30 21:12:00,
2013-08-30 17:17:00,79.3,64.2,28.21,SE,135,2.0,2.0,60,0.00,,,0.00,meteohub,2013-08-30 21:17:00,
2013-08-30 17:22:00,79.2,63.1,28.22,North,0,2.0,2.0,58,0.00,,,0.00,meteohub,2013-08-30 21:22:00,
2013-08-30 17:27:00,79.2,61.5,28.21,West,270,1.0,3.0,55,0.00,,,0.00,meteohub,2013-08-30 21:27:00,
2013-08-30 17:32:00,79.2,62.1,28.22,West,270,2.0,3.0,56,0.00,,,0.00,meteohub,2013-08-30 21:32:00,
2013-08-30 17:37:00,79.2,61.5,28.22,West,270,1.0,3.0,55,0.00,,,0.00,meteohub,2013-08-30 21:37:00,
2013-08-30 17:42:00,78.8,62.8,28.21,South,180,2.0,2.0,58,0.00,,,0.00,meteohub,2013-08-30 21:42:00,
2013-08-30 17:47:00,78.3,63.3,28.21,North,0,2.0,2.0,60,0.00,,,0.00,meteohub,2013-08-30 21:47:00,
2013-08-30 17:52:00,77.7,63.1,28.21,West,270,0.0,2.0,61,0.00,,,0.00,meteohub,2013-08-30 21:52:00,
2013-08-30 17:57:00,77.2,62.6,28.21,North,0,2.0,2.0,61,0.00,,,0.00,meteohub,2013-08-30 21:57:00,
2013-08-30 18:02:00,76.6,63.1,28.21,NW,315,1.0,2.0,63,0.00,,,0.00,meteohub,2013-08-30 22:02:00,
2013-08-30 18:07:00,76.3,62.8,28.21,NW,315,0.0,2.0,63,0.00,,,0.00,meteohub,2013-08-30 22:07:00,
2013-08-30 18:12:00,76.1,63.5,28.21,North,0,0.0,2.0,65,0.00,,,0.00,meteohub,2013-08-30 22:12:00,
2013-08-30 18:17:00,75.9,63.3,28.21,North,0,2.0,2.0,65,0.00,,,0.00,meteohub,2013-08-30 22:17:00,
2013-08-30 18:22:00,75.6,63.9,28.21,NE,45,2.0,2.0,67,0.00,,,0.00,meteohub,2013-08-30 22:22:00,
2013-08-30 18:27:00,75.4,63.7,28.20,North,0,2.0,2.0,67,0.00,,,0.00,meteohub,2013-08-30 22:27:00,
2013-08-30 18:32:00,75.4,63.7,28.20,South,180,1.0,2.0,67,0.00,,,0.00,meteohub,2013-08-30 22:32:00,
2013-08-30 18:37:00,75.2,63.9,28.20,NW,315,0.0,2.0,68,0.00,,,0.00,meteohub,2013-08-30 22:37:00,
2013-08-30 18:42:00,75.0,64.6,28.20,SW,225,0.0,2.0,70,0.00,,,0.00,meteohub,2013-08-30 22:42:00,
2013-08-30 18:47:00,75.0,64.6,28.20,SW,225,0.0,2.0,70,0.00,,,0.00,meteohub,2013-08-30 22:47:00,
2013-08-30 18:52:00,75.0,65.3,28.20,East,90,1.0,2.0,72,0.00,,,0.00,meteohub,2013-08-30 22:52:00,
2013-08-30 18:57:00,74.7,65.1,28.20,SE,135,0.0,2.0,72,0.00,,,0.00,meteohub,2013-08-30 22:57:00,
2013-08-30 19:02:00,74.7,65.1,28.20,NE,45,0.0,2.0,72,0.00,,,0.00,meteohub,2013-08-30 23:02:00,
2013-08-30 19:07:00,74.1,65.3,28.20,SW,225,2.0,2.0,74,0.00,,,0.00,meteohub,2013-08-30 23:07:00,
2013-08-30 19:12:00,73.6,65.1,28.20,West,270,2.0,2.0,75,0.00,,,0.00,meteohub,2013-08-30 23:12:00,
2013-08-30 19:17:00,73.0,64.6,28.20,South,180,2.0,2.0,75,0.00,,,0.00,meteohub,2013-08-30 23:17:00,
2013-08-30 19:22:00,72.7,64.8,28.20,SE,135,2.0,2.0,76,0.00,,,0.00,meteohub,2013-08-30 23:22:00,
2013-08-30 19:27:00,72.3,64.8,28.20,SE,135,0.0,2.0,77,0.00,,,0.00,meteohub,2013-08-30 23:27:00,
2013-08-30 19:32:00,72.0,64.4,28.20,SE,135,0.0,2.0,77,0.00,,,0.00,meteohub,2013-08-30 23:32:00,
2013-08-30 19:37:00,71.4,64.9,28.20,SE,135,2.0,2.0,80,0.00,,,0.00,meteohub,2013-08-30 23:37:00,
2013-08-30 19:42:00,71.1,64.6,28.20,SE,135,1.0,2.0,80,0.00,,,0.00,meteohub,2013-08-30 23:42:00,
2013-08-30 19:47:00,70.7,64.6,28.20,SSE,158,2.0,2.0,81,0.00,,,0.00,meteohub,2013-08-30 23:47:00,
2013-08-30 19:52:00,70.3,64.6,28.21,South,180,2.0,2.0,82,0.00,,,0.00,meteohub,2013-08-30 23:52:00,
2013-08-30 19:57:00,69.8,63.7,28.20,NE,45,2.0,2.0,81,0.00,,,0.00,meteohub,2013-08-30 23:57:00,
2013-08-30 20:02:00,69.6,64.2,28.20,East,90,2.0,2.0,83,0.00,,,0.00,meteohub,2013-08-31 00:02:00,
2013-08-30 20:07:00,69.1,64.0,28.21,SE,135,2.0,2.0,84,0.00,,,0.00,meteohub,2013-08-31 00:07:00,
2013-08-30 20:12:00,68.7,64.0,28.20,NW,315,0.0,2.0,85,0.00,,,0.00,meteohub,2013-08-31 00:12:00,
2013-08-30 20:17:00,68.4,63.7,28.20,SW,225,0.0,2.0,85,0.00,,,0.00,meteohub,2013-08-31 00:17:00,
2013-08-30 20:22:00,68.0,63.3,28.21,SW,225,0.0,2.0,85,0.00,,,0.00,meteohub,2013-08-31 00:22:00,
2013-08-30 20:27:00,67.8,63.9,28.21,West,270,0.0,1.0,87,0.00,,,0.00,meteohub,2013-08-31 00:27:00,
2013-08-30 20:32:00,67.8,63.9,28.21,NW,315,0.0,1.0,87,0.00,,,0.00,meteohub,2013-08-31 00:32:00,
2013-08-30 20:37:00,67.6,64.0,28.21,SE,135,0.0,0.0,88,0.00,,,0.00,meteohub,2013-08-31 00:37:00,
2013-08-30 20:42:00,67.6,64.0,28.21,NW,315,0.0,0.0,88,0.00,,,0.00,meteohub,2013-08-31 00:42:00,
2013-08-30 20:47:00,67.5,64.0,28.21,SW,225,0.0,0.0,89,0.00,,,0.00,meteohub,2013-08-31 00:47:00,
2013-08-30 20:52:00,67.5,64.0,28.22,East,90,1.0,0.0,89,0.00,,,0.00,meteohub,2013-08-31 00:52:00,
2013-08-30 20:57:00,67.1,64.0,28.22,East,90,0.0,1.0,90,0.00,,,0.00,meteohub,2013-08-31 00:57:00,
2013-08-30 21:02:00,67.1,64.0,28.22,SW,225,0.0,1.0,90,0.00,,,0.00,meteohub,2013-08-31 01:02:00,
2013-08-30 21:07:00,67.1,64.4,28.22,SE,135,0.0,1.0,91,0.00,,,0.00,meteohub,2013-08-31 01:07:00,
2013-08-30 21:12:00,67.1,64.4,28.22,East,90,0.0,0.0,91,0.00,,,0.00,meteohub,2013-08-31 01:12:00,
2013-08-30 21:17:00,67.1,64.4,28.22,East,90,0.0,0.0,91,0.00,,,0.00,meteohub,2013-08-31 01:17:00,
2013-08-30 21:22:00,67.1,64.4,28.21,East,90,0.0,0.0,91,0.00,,,0.00,meteohub,2013-08-31 01:22:00,
2013-08-30 21:27:00,67.1,64.4,28.22,South,180,0.0,0.0,91,0.00,,,0.00,meteohub,2013-08-31 01:27:00,
2013-08-30 21:32:00,67.1,64.4,28.22,SE,135,0.0,0.0,91,0.00,,,0.00,meteohub,2013-08-31 01:32:00,
2013-08-30 21:37:00,66.9,64.2,28.21,East,90,0.0,0.0,91,0.00,,,0.00,meteohub,2013-08-31 01:37:00,
2013-08-30 21:42:00,66.7,64.0,28.22,SE,135,0.0,0.0,91,0.00,,,0.00,meteohub,2013-08-31 01:42:00,
2013-08-30 21:47:00,66.7,64.0,28.21,East,90,0.0,0.0,91,0.00,,,0.00,meteohub,2013-08-31 01:47:00,
2013-08-30 21:52:00,66.6,63.9,28.21,SE,135,0.0,0.0,91,0.00,,,0.00,meteohub,2013-08-31 01:52:00,
2013-08-30 21:57:00,66.4,63.7,28.21,East,90,0.0,0.0,91,0.00,,,0.00,meteohub,2013-08-31 01:57:00,
2013-08-30 22:02:00,66.4,63.7,28.21,NE,45,0.0,1.0,91,0.00,,,0.00,meteohub,2013-08-31 02:02:00,
2013-08-30 22:07:00,66.2,63.5,28.21,NW,315,0.0,1.0,91,0.00,,,0.00,meteohub,2013-08-31 02:07:00,
2013-08-30 22:12:00,66.2,63.5,28.21,North,0,0.0,1.0,91,0.00,,,0.00,meteohub,2013-08-31 02:12:00,
2013-08-30 22:17:00,66.0,63.7,28.21,South,180,0.0,2.0,92,0.00,,,0.00,meteohub,2013-08-31 02:17:00,
2013-08-30 22:22:00,66.0,63.7,28.21,East,90,0.0,2.0,92,0.00,,,0.00,meteohub,2013-08-31 02:22:00,
2013-08-30 22:27:00,66.0,63.9,28.21,SE,135,0.0,3.0,93,0.00,,,0.00,meteohub,2013-08-31 02:27:00,
2013-08-30 22:32:00,65.8,63.7,28.21,East,90,1.0,3.0,93,0.00,,,0.00,meteohub,2013-08-31 02:32:00,
2013-08-30 22:37:00,65.8,63.7,28.20,SE,135,0.0,3.0,93,0.00,,,0.00,meteohub,2013-08-31 02:37:00,
2013-08-30 22:42:00,65.7,63.5,28.21,SE,135,0.0,1.0,93,0.00,,,0.00,meteohub,2013-08-31 02:42:00,
2013-08-30 22:47:00,65.8,63.7,28.21,SSE,158,2.0,2.0,93,0.00,,,0.00,meteohub,2013-08-31 02:47:00,
2013-08-30 22:52:00,65.8,63.7,28.21,SE,135,1.0,2.0,93,0.00,,,0.00,meteohub,2013-08-31 02:52:00,
2013-08-30 22:57:00,65.8,63.7,28.22,West,270,0.0,2.0,93,0.00,,,0.00,meteohub,2013-08-31 02:57:00,
2013-08-30 23:02:00,65.8,63.7,28.20,NW,315,2.0,4.0,93,0.00,,,0.00,meteohub,2013-08-31 03:02:00,
2013-08-30 23:07:00,65.8,63.7,28.21,SE,135,2.0,4.0,93,0.00,,,0.00,meteohub,2013-08-31 03:07:00,
2013-08-30 23:12:00,65.8,63.7,28.20,South,180,2.0,4.0,93,0.00,,,0.00,meteohub,2013-08-31 03:12:00,
2013-08-30 23:17:00,66.0,63.9,28.19,East,90,2.0,4.0,93,0.00,,,0.00,meteohub,2013-08-31 03:17:00,
2013-08-30 23:22:00,66.0,63.9,28.19,NE,45,2.0,2.0,93,0.00,,,0.00,meteohub,2013-08-31 03:22:00,
2013-08-30 23:27:00,66.0,63.7,28.19,West,270,0.0,2.0,92,0.00,,,0.00,meteohub,2013-08-31 03:27:00,
2013-08-30 23:32:00,65.8,63.5,28.19,SW,225,0.0,2.0,92,0.00,,,0.00,meteohub,2013-08-31 03:32:00,
2013-08-30 23:37:00,65.8,63.5,28.20,NE,45,0.0,2.0,92,0.00,,,0.00,meteohub,2013-08-31 03:37:00,
2013-08-30 23:42:00,65.8,63.5,28.19,NE,45,0.0,2.0,92,0.00,,,0.00,meteohub,2013-08-31 03:42:00,
2013-08-30 23:47:00,65.7,63.3,28.19,SE,135,0.0,1.0,92,0.00,,,0.00,meteohub,2013-08-31 03:47:00,
2013-08-30 23:52:00,65.7,63.3,28.19,NE,45,2.0,2.0,92,0.00,,,0.00,meteohub,2013-08-31 03:52:00,
2013-08-30 23:57:00,65.5,63.1,28.19,South,180,2.0,3.0,92,0.00,,,0.00,meteohub,2013-08-31 03:57:00,